York, PA

5:26 AM EDT on October 19, 2017 (GMT -0400)
York

Weather History for KTHV - March, 2012

Change the Weather History Date:

Sunday, March 25, 2012

  Actual Average Record
Temperature  
Mean Temperature 53 °F -  
Max Temperature 62 °F 0 °F 75 °F (2017)
Min Temperature 44 °F - 19 °F (2015)
Degree Days  
Heating Degree Days 12    
Growing Degree Days 3 (Base 50)    
Moisture  
Dew Point 48 °F    
Average Humidity 93    
Maximum Humidity 100    
Minimum Humidity 70    
Precipitation  
Precipitation 0.01 in - - ()
Sea Level Pressure  
Sea Level Pressure 29.83 in    
Wind  
Wind Speed 6 mph (North)    
Max Wind Speed 12 mph    
Max Gust Speed -    
Visibility 6 miles    
Events Rain    
Averages and records for this station are not official NWS values.
T = Trace of Precipitation, MM = Missing Value Source: NWS Daily Summary

Daily Weather History Graph

Daily Weather History Graph

Search for Another Location

Airport or City:

Trip Planner

Search our weather history database for the weather conditions in past years. The results will help you decide how hot, cold, wet, or windy it might be!

Date:

Astronomy

Mar. 25, 2012 Rise Set
Actual Time 7:02 AM EDT 7:25 PM EDT
Civil Twilight 6:34 AM EDT 7:52 PM EDT
Nautical Twilight 6:03 AM EDT 8:24 PM EDT
Astronomical Twilight 5:30 AM EDT 8:56 PM EDT
Moon 8:13 AM EDT (3/25) 10:38 PM EDT (3/25)
Length of Visible Light 13h 17m
Length of Day
12h 23m
Waxing Crescent, 8% of the Moon is Illuminated
Mar 25
Waxing Crescent
Mar 30
First Quarter
Apr 6
Full
Apr 13
Last Quarter
Apr 21
New

Hourly Weather History & Observations

Time (EDT) Temp. Windchill Dew Point Humidity Pressure Visibility Wind Dir Wind Speed Gust Speed Precip Events Conditions
12:05 AM 48.2 °F - 48.2 °F 100% 29.90 in 3.0 mi NE 5.8 mph - 0.00 in Rain Light Rain
12:18 AM 48.2 °F - 48.2 °F 100% 29.90 in 2.5 mi NNE 5.8 mph - 0.01 in   Overcast
12:26 AM 48.2 °F - 48.2 °F 100% 29.90 in 3.0 mi NE 8.1 mph - 0.01 in   Overcast
12:53 AM 48.0 °F - 48.0 °F 100% 29.91 in 3.0 mi NE 6.9 mph - 0.01 in   Overcast
1:37 AM 46.4 °F 42.4 °F 46.4 °F 100% 29.88 in 2.5 mi NNE 8.1 mph - 0.00 in   Overcast
1:53 AM 46.9 °F - 46.9 °F 100% 29.89 in 2.5 mi NNE 8.1 mph - 0.00 in   Overcast
2:18 AM 46.4 °F 41.9 °F 46.4 °F 100% 29.88 in 3.0 mi NNE 9.2 mph - N/A   Overcast
2:53 AM 46.9 °F - 46.0 °F 97% 29.88 in 5.0 mi NNE 6.9 mph - N/A   Overcast
3:21 AM 46.4 °F 43.5 °F 46.4 °F 100% 29.86 in 2.5 mi North 5.8 mph - N/A   Overcast
3:53 AM 46.0 °F 43.1 °F 46.0 °F 100% 29.86 in 2.0 mi NNE 5.8 mph - N/A   Overcast
4:38 AM 46.4 °F 43.5 °F 44.6 °F 93% 29.84 in 2.5 mi NE 5.8 mph - N/A   Overcast
4:51 AM 46.4 °F 44.3 °F 46.4 °F 100% 29.84 in 3.0 mi NNE 4.6 mph - N/A   Overcast
4:53 AM 46.0 °F 43.9 °F 46.0 °F 100% 29.85 in 3.0 mi NNE 4.6 mph - N/A   Overcast
5:53 AM 45.0 °F 41.8 °F 45.0 °F 100% 29.83 in 5.0 mi NE 5.8 mph - N/A   Overcast
6:33 AM 44.6 °F 41.4 °F 44.6 °F 100% 29.83 in 2.5 mi NNE 5.8 mph - N/A   Overcast
6:42 AM 44.6 °F 41.4 °F 44.6 °F 100% 29.83 in 2.0 mi NNE 5.8 mph - 0.00 in Rain Light Rain
7:04 AM 44.6 °F 42.2 °F 44.6 °F 100% 29.83 in 1.8 mi North 4.6 mph - N/A   Overcast
7:53 AM 46.0 °F 43.9 °F 46.0 °F 100% 29.85 in 1.2 mi NNE 4.6 mph - N/A   Overcast
8:11 AM 46.4 °F 42.9 °F 46.4 °F 100% 29.84 in 2.5 mi NNE 6.9 mph - N/A   Overcast
8:53 AM 46.9 °F - 46.0 °F 97% 29.85 in 2.5 mi NE 6.9 mph - N/A   Overcast
9:01 AM 46.4 °F 42.9 °F 46.4 °F 100% 29.84 in 3.0 mi NE 6.9 mph - N/A   Overcast
9:27 AM 46.4 °F 43.5 °F 46.4 °F 100% 29.85 in 5.0 mi Variable 5.8 mph - N/A   Overcast
9:53 AM 48.0 °F - 46.9 °F 96% 29.86 in 5.0 mi NNE 4.6 mph - N/A   Overcast
10:53 AM 48.0 °F - 46.9 °F 96% 29.87 in 6.0 mi NNE 4.6 mph - N/A   Overcast
11:53 AM 50.0 °F - 48.0 °F 93% 29.85 in 5.0 mi North 6.9 mph - N/A   Overcast
12:07 PM 50.0 °F - 48.2 °F 94% 29.84 in 5.0 mi North 5.8 mph - N/A   Overcast
12:30 PM 48.2 °F - 48.2 °F 100% 29.83 in 4.0 mi NNW 5.8 mph - N/A   Overcast
12:53 PM 48.9 °F - 46.9 °F 93% 29.84 in 4.0 mi NNE 5.8 mph - N/A   Overcast
1:20 PM 50.0 °F - 48.2 °F 94% 29.83 in 6.0 mi NNE 5.8 mph - N/A   Overcast
1:39 PM 51.8 °F - 48.2 °F 88% 29.82 in 9.0 mi North 6.9 mph - N/A   Overcast
1:53 PM 51.1 °F - 48.0 °F 89% 29.83 in 8.0 mi Calm Calm - N/A   Overcast
2:21 PM 51.8 °F - 48.2 °F 88% 29.80 in 10.0 mi NNW 3.5 mph - N/A   Overcast
2:53 PM 55.9 °F - 51.1 °F 84% 29.79 in 10.0 mi Variable 3.5 mph - N/A   Mostly Cloudy
3:11 PM 57.2 °F - 51.8 °F 82% 29.77 in 10.0 mi Variable 3.5 mph - N/A   Scattered Clouds
3:20 PM 57.2 °F - 51.8 °F 82% 29.77 in 10.0 mi Variable 4.6 mph - N/A   Mostly Cloudy
3:53 PM 59.0 °F - 51.1 °F 75% 29.77 in 10.0 mi Variable 5.8 mph - N/A   Overcast
4:28 PM 60.8 °F - 51.8 °F 72% 29.75 in 10.0 mi NNE 5.8 mph - N/A   Scattered Clouds
4:53 PM 62.1 °F - 52.0 °F 70% 29.76 in 10.0 mi NNW 5.8 mph - N/A   Clear
5:53 PM 60.1 °F - 53.1 °F 78% 29.78 in 10.0 mi NW 8.1 mph - N/A   Clear
6:53 PM 59.0 °F - 53.1 °F 81% 29.78 in 10.0 mi WNW 3.5 mph - N/A   Clear
7:53 PM 57.0 °F - 52.0 °F 83% 29.78 in 10.0 mi NW 3.5 mph - N/A   Clear
8:53 PM 54.0 °F - 52.0 °F 93% 29.79 in 10.0 mi NW 3.5 mph - N/A   Mostly Cloudy
9:53 PM 57.0 °F - 52.0 °F 83% 29.79 in 10.0 mi WNW 5.8 mph - N/A   Clear
10:53 PM 54.0 °F - 50.0 °F 86% 29.79 in 10.0 mi WNW 3.5 mph - N/A   Clear
11:53 PM 57.9 °F - 51.1 °F 78% 29.80 in 10.0 mi NW 11.5 mph - N/A   Overcast